Year,Month,Day,Hour,Minute,Value (Times are PST for temperature in C)
2019,11,25,00,00,7.20
2019,11,25,00,01,7.20
2019,11,25,00,02,7.20
2019,11,25,00,03,7.20
2019,11,25,00,04,7.20
2019,11,25,00,05,7.20
2019,11,25,00,06,7.20
2019,11,25,00,07,7.20
2019,11,25,00,08,7.20
2019,11,25,00,09,7.20
2019,11,25,00,10,7.20
2019,11,25,00,11,7.20
2019,11,25,00,12,7.20
2019,11,25,00,13,7.20
2019,11,25,00,14,7.10
2019,11,25,00,15,7.10
2019,11,25,00,16,7.10
2019,11,25,00,17,7.10
2019,11,25,00,18,7.10
2019,11,25,00,19,7.10
2019,11,25,00,20,7.10
2019,11,25,00,21,7.10
2019,11,25,00,22,7.10
2019,11,25,00,23,7.10
2019,11,25,00,24,7.10
2019,11,25,00,25,7.20
2019,11,25,00,26,7.20
2019,11,25,00,27,7.20
2019,11,25,00,28,7.20
2019,11,25,00,29,7.20
2019,11,25,00,30,7.20
2019,11,25,00,31,7.30
2019,11,25,00,32,7.30
2019,11,25,00,33,7.30
2019,11,25,00,34,7.20
2019,11,25,00,35,7.20
2019,11,25,00,36,7.20
2019,11,25,00,37,7.20
2019,11,25,00,38,7.20
2019,11,25,00,39,7.20
2019,11,25,00,40,7.20
2019,11,25,00,41,7.20
2019,11,25,00,42,7.20
2019,11,25,00,43,7.20
2019,11,25,00,44,7.20
2019,11,25,00,45,7.20
2019,11,25,00,46,7.20
2019,11,25,00,47,7.20
2019,11,25,00,48,7.20
2019,11,25,00,49,7.20
2019,11,25,00,50,7.20
2019,11,25,00,51,7.10
2019,11,25,00,52,7.10
2019,11,25,00,53,7.10
2019,11,25,00,54,7.20
2019,11,25,00,55,7.20
2019,11,25,00,56,7.20
2019,11,25,00,57,7.20
2019,11,25,00,58,7.20
2019,11,25,00,59,7.20
2019,11,25,01,00,7.20
2019,11,25,01,01,7.20
2019,11,25,01,02,7.20
2019,11,25,01,03,7.20
2019,11,25,01,04,7.20
2019,11,25,01,05,7.20
2019,11,25,01,06,7.20
2019,11,25,01,07,7.20
2019,11,25,01,08,7.20
2019,11,25,01,09,7.20
2019,11,25,01,10,7.20
2019,11,25,01,11,7.20
2019,11,25,01,12,7.20
2019,11,25,01,13,7.20
2019,11,25,01,14,7.20
2019,11,25,01,15,7.20
2019,11,25,01,16,7.20
2019,11,25,01,17,7.20
2019,11,25,01,18,7.20
2019,11,25,01,19,7.20
2019,11,25,01,20,7.20
2019,11,25,01,21,7.20
2019,11,25,01,22,7.20
2019,11,25,01,23,7.10
2019,11,25,01,24,7.20
2019,11,25,01,25,7.20
2019,11,25,01,26,7.20
2019,11,25,01,27,7.20
2019,11,25,01,28,7.20
2019,11,25,01,29,7.10
2019,11,25,01,30,7.10
2019,11,25,01,31,7.10
2019,11,25,01,32,7.10
2019,11,25,01,33,7.10
2019,11,25,01,34,7.20
2019,11,25,01,35,7.10
2019,11,25,01,36,7.10
2019,11,25,01,37,7.20
2019,11,25,01,38,7.10
2019,11,25,01,39,7.10
2019,11,25,01,40,7.10
2019,11,25,01,41,7.10
2019,11,25,01,42,7.10
2019,11,25,01,43,7.20
2019,11,25,01,44,7.20
2019,11,25,01,45,7.20
2019,11,25,01,46,7.10
2019,11,25,01,47,7.10
2019,11,25,01,48,7.10
2019,11,25,01,49,7.10
2019,11,25,01,50,7.10
2019,11,25,01,51,7.10
2019,11,25,01,52,7.00
2019,11,25,01,53,7.00
2019,11,25,01,54,7.00
2019,11,25,01,55,7.00
2019,11,25,01,56,7.00
2019,11,25,01,57,7.00
2019,11,25,01,58,7.00
2019,11,25,01,59,7.00
2019,11,25,02,00,6.90
2019,11,25,02,01,6.90
2019,11,25,02,02,6.90
2019,11,25,02,03,6.90
2019,11,25,02,04,6.90
2019,11,25,02,05,6.90
2019,11,25,02,06,6.90
2019,11,25,02,07,6.90
2019,11,25,02,08,6.90
2019,11,25,02,09,6.90
2019,11,25,02,10,6.90
2019,11,25,02,11,6.80
2019,11,25,02,12,6.80
2019,11,25,02,13,6.80
2019,11,25,02,14,6.80
2019,11,25,02,15,6.80
2019,11,25,02,16,6.80
2019,11,25,02,17,6.80
2019,11,25,02,18,6.80
2019,11,25,02,19,6.80
2019,11,25,02,20,6.80
2019,11,25,02,21,6.80
2019,11,25,02,22,6.80
2019,11,25,02,23,6.80
2019,11,25,02,24,6.80
2019,11,25,02,25,6.80
2019,11,25,02,26,6.80
2019,11,25,02,27,6.70
2019,11,25,02,28,6.70
2019,11,25,02,29,6.70
2019,11,25,02,30,6.70
2019,11,25,02,31,6.60
2019,11,25,02,32,6.60
2019,11,25,02,33,6.60
2019,11,25,02,34,6.60
2019,11,25,02,35,6.60
2019,11,25,02,36,6.60
2019,11,25,02,37,6.60
2019,11,25,02,38,6.60
2019,11,25,02,39,6.60
2019,11,25,02,40,6.60
2019,11,25,02,41,6.50
2019,11,25,02,42,6.50
2019,11,25,02,43,6.50
2019,11,25,02,44,6.50
2019,11,25,02,45,6.50
2019,11,25,02,46,6.50
2019,11,25,02,47,6.50
2019,11,25,02,48,6.40
2019,11,25,02,49,6.40
2019,11,25,02,50,6.40
2019,11,25,02,51,6.40
2019,11,25,02,52,6.40
2019,11,25,02,53,6.40
2019,11,25,02,54,6.30
2019,11,25,02,55,6.30
2019,11,25,02,56,6.30
2019,11,25,02,57,6.30
2019,11,25,02,58,6.30
2019,11,25,02,59,6.30
2019,11,25,03,00,6.20
2019,11,25,03,01,6.20
2019,11,25,03,02,6.20
2019,11,25,03,03,6.20
2019,11,25,03,04,6.10
2019,11,25,03,05,6.10
2019,11,25,03,06,6.10
2019,11,25,03,07,6.10
2019,11,25,03,08,6.00
2019,11,25,03,09,6.00
2019,11,25,03,10,5.90
2019,11,25,03,11,5.90
2019,11,25,03,12,5.90
2019,11,25,03,13,5.90
2019,11,25,03,14,5.90
2019,11,25,03,15,5.90
2019,11,25,03,16,5.90
2019,11,25,03,17,5.90
2019,11,25,03,18,5.90
2019,11,25,03,19,5.90
2019,11,25,03,20,5.90
2019,11,25,03,21,5.90
2019,11,25,03,22,5.90
2019,11,25,03,23,5.90
2019,11,25,03,24,5.90
2019,11,25,03,25,5.90
2019,11,25,03,26,5.90
2019,11,25,03,27,5.90
2019,11,25,03,28,5.90
2019,11,25,03,29,5.90
2019,11,25,03,30,5.80
2019,11,25,03,31,5.80
2019,11,25,03,32,5.80
2019,11,25,03,33,5.80
2019,11,25,03,34,5.80
2019,11,25,03,35,5.80
2019,11,25,03,36,5.80
2019,11,25,03,37,5.80
2019,11,25,03,38,5.80
2019,11,25,03,39,5.70
2019,11,25,03,40,5.70
2019,11,25,03,41,5.60
2019,11,25,03,42,5.60
2019,11,25,03,43,5.50
2019,11,25,03,44,5.50
2019,11,25,03,45,5.40
2019,11,25,03,46,5.40
2019,11,25,03,47,5.40
2019,11,25,03,48,5.30
2019,11,25,03,49,5.30
2019,11,25,03,50,5.30
2019,11,25,03,51,5.20
2019,11,25,03,52,5.20
2019,11,25,03,53,5.20
2019,11,25,03,54,5.20
2019,11,25,03,55,5.10
2019,11,25,03,56,5.10
2019,11,25,03,57,5.10
2019,11,25,03,58,5.10
2019,11,25,03,59,5.10
2019,11,25,04,00,5.10
2019,11,25,04,01,5.10
2019,11,25,04,02,5.10
2019,11,25,04,03,5.10
2019,11,25,04,04,5.10
2019,11,25,04,05,5.10
2019,11,25,04,06,5.10
2019,11,25,04,07,5.10
2019,11,25,04,08,5.10
2019,11,25,04,09,5.00
2019,11,25,04,10,4.80
2019,11,25,04,11,4.70
2019,11,25,04,12,4.70
2019,11,25,04,13,4.70
2019,11,25,04,14,4.60
2019,11,25,04,15,4.60
2019,11,25,04,16,4.60
2019,11,25,04,17,4.60
2019,11,25,04,18,4.60
2019,11,25,04,19,4.60
2019,11,25,04,20,4.60
2019,11,25,04,21,4.50
2019,11,25,04,22,4.50
2019,11,25,04,23,4.50
2019,11,25,04,24,4.40
2019,11,25,04,25,4.40
2019,11,25,04,26,4.40
2019,11,25,04,27,4.40
2019,11,25,04,28,4.40
2019,11,25,04,29,4.40
2019,11,25,04,30,4.40
2019,11,25,04,31,4.40
2019,11,25,04,32,4.40
2019,11,25,04,33,4.40
2019,11,25,04,34,4.40
2019,11,25,04,35,4.40
2019,11,25,04,36,4.40
2019,11,25,04,37,4.50
2019,11,25,04,38,4.50
2019,11,25,04,39,4.50
2019,11,25,04,40,4.50
2019,11,25,04,41,4.50
2019,11,25,04,42,4.60
2019,11,25,04,43,4.60
2019,11,25,04,44,4.60
2019,11,25,04,45,4.60
2019,11,25,04,46,4.60
2019,11,25,04,47,4.60
2019,11,25,04,48,4.60
2019,11,25,04,49,4.60
2019,11,25,04,50,4.50
2019,11,25,04,51,4.50
2019,11,25,04,52,4.50
2019,11,25,04,53,4.50
2019,11,25,04,54,4.50
2019,11,25,04,55,4.50
2019,11,25,04,56,4.40
2019,11,25,04,57,4.40
2019,11,25,04,58,4.40
2019,11,25,04,59,4.40
2019,11,25,05,00,4.40
2019,11,25,05,01,4.40
2019,11,25,05,02,4.40
2019,11,25,05,03,4.40
2019,11,25,05,04,4.40
2019,11,25,05,05,4.40
2019,11,25,05,06,4.40
2019,11,25,05,07,4.30
2019,11,25,05,08,4.30
2019,11,25,05,09,4.20
2019,11,25,05,10,4.10
2019,11,25,05,11,4.10
2019,11,25,05,12,4.10
2019,11,25,05,13,4.10
2019,11,25,05,14,4.00
2019,11,25,05,15,4.00
2019,11,25,05,16,4.00
2019,11,25,05,17,4.00
2019,11,25,05,18,4.00
2019,11,25,05,19,3.90
2019,11,25,05,20,3.90
2019,11,25,05,21,3.90
2019,11,25,05,22,3.80
2019,11,25,05,23,3.80
2019,11,25,05,24,3.80
2019,11,25,05,25,3.70
2019,11,25,05,26,3.70
2019,11,25,05,27,3.60
2019,11,25,05,28,3.60
2019,11,25,05,29,3.50
2019,11,25,05,30,3.50
2019,11,25,05,31,3.40
2019,11,25,05,32,3.40
2019,11,25,05,33,3.40
2019,11,25,05,34,3.40
2019,11,25,05,35,3.40
2019,11,25,05,36,3.30
2019,11,25,05,37,3.30
2019,11,25,05,38,3.30
2019,11,25,05,39,3.30
2019,11,25,05,40,3.30
2019,11,25,05,41,3.30
2019,11,25,05,42,3.30
2019,11,25,05,43,3.30
2019,11,25,05,44,3.30
2019,11,25,05,45,3.30
2019,11,25,05,46,3.30
2019,11,25,05,47,3.30
2019,11,25,05,48,3.30
2019,11,25,05,49,3.30
2019,11,25,05,50,3.30
2019,11,25,05,51,3.30
2019,11,25,05,52,3.30
2019,11,25,05,53,3.30
2019,11,25,05,54,3.30
2019,11,25,08,10,2.80
2019,11,25,08,11,2.80
2019,11,25,08,12,2.80
2019,11,25,08,13,2.80
2019,11,25,08,14,2.80
2019,11,25,08,15,2.80
2019,11,25,08,16,2.80
2019,11,25,08,17,2.90
2019,11,25,08,18,2.90
2019,11,25,08,19,2.90
2019,11,25,08,20,2.90
2019,11,25,08,21,3.00
2019,11,25,08,22,3.00
2019,11,25,08,23,3.00
2019,11,25,08,24,3.00
2019,11,25,08,25,3.00
2019,11,25,08,26,3.00
2019,11,25,08,27,3.00
2019,11,25,08,28,3.00
2019,11,25,08,29,3.00
2019,11,25,08,30,3.10
2019,11,25,08,31,3.10
2019,11,25,08,32,3.10
2019,11,25,08,33,3.10
2019,11,25,08,34,3.10
2019,11,25,08,35,3.20
2019,11,25,08,36,3.20
2019,11,25,08,37,3.20
2019,11,25,08,38,3.30
2019,11,25,08,39,3.30
2019,11,25,08,40,3.40
2019,11,25,08,41,3.40
2019,11,25,08,42,3.40
2019,11,25,08,43,3.50
2019,11,25,08,44,3.50
2019,11,25,08,45,3.60
2019,11,25,08,46,3.60
2019,11,25,08,47,3.70
2019,11,25,08,48,3.70
2019,11,25,08,49,3.70
2019,11,25,08,50,3.80
2019,11,25,08,51,3.80
2019,11,25,08,52,3.80
2019,11,25,08,53,3.90
2019,11,25,08,54,3.90
2019,11,25,08,55,4.00
2019,11,25,08,56,4.00
2019,11,25,08,57,4.10
2019,11,25,08,58,4.10
2019,11,25,08,59,4.20
2019,11,25,09,00,4.20
2019,11,25,09,01,4.20
2019,11,25,09,02,4.20
2019,11,25,09,03,4.20
2019,11,25,09,04,4.20
2019,11,25,09,05,4.30
2019,11,25,09,06,4.30
2019,11,25,09,07,4.30
2019,11,25,09,08,4.30
2019,11,25,09,09,4.30
2019,11,25,09,10,4.30
2019,11,25,09,11,4.30
2019,11,25,09,12,4.30
2019,11,25,09,13,4.30
2019,11,25,09,14,4.30
2019,11,25,09,15,4.30
2019,11,25,09,16,4.30
2019,11,25,09,17,4.30
2019,11,25,09,18,4.30
2019,11,25,09,19,4.30
2019,11,25,09,20,4.40
2019,11,25,09,21,4.40
2019,11,25,09,22,4.40
2019,11,25,09,23,4.50
2019,11,25,09,24,4.50
2019,11,25,09,25,4.60
2019,11,25,09,26,4.60
2019,11,25,09,27,4.70
2019,11,25,09,28,4.70
2019,11,25,09,29,4.70
2019,11,25,09,30,4.80
2019,11,25,09,31,4.80
2019,11,25,09,32,4.90
2019,11,25,09,33,4.90
2019,11,25,09,34,4.90
2019,11,25,09,35,5.00
2019,11,25,09,36,5.00
2019,11,25,09,37,5.10
2019,11,25,09,38,5.10
2019,11,25,09,39,5.10
2019,11,25,09,40,5.20
2019,11,25,09,41,5.20
2019,11,25,09,42,5.20
2019,11,25,09,43,5.20
2019,11,25,09,44,5.30
2019,11,25,09,45,5.30
2019,11,25,09,46,5.30
2019,11,25,09,47,5.30
2019,11,25,09,48,5.30
2019,11,25,09,49,5.30
2019,11,25,09,50,5.30
2019,11,25,09,51,5.30
2019,11,25,09,52,5.30
2019,11,25,09,53,5.30
2019,11,25,09,54,5.30
2019,11,25,09,55,5.30
2019,11,25,09,56,5.30
2019,11,25,09,57,5.30
2019,11,25,09,58,5.40
2019,11,25,09,59,5.40
2019,11,25,10,00,5.40
2019,11,25,10,01,5.50
2019,11,25,10,02,5.50
2019,11,25,10,03,5.60
2019,11,25,10,04,5.60
2019,11,25,10,05,5.70
2019,11,25,10,06,5.70
2019,11,25,10,07,5.70
2019,11,25,10,08,5.80
2019,11,25,10,09,5.80
2019,11,25,10,10,5.80
2019,11,25,10,11,5.80
2019,11,25,10,12,5.90
2019,11,25,10,13,5.90
2019,11,25,10,14,5.90
2019,11,25,10,15,6.00
2019,11,25,10,16,6.00
2019,11,25,10,17,6.10
2019,11,25,10,18,6.10
2019,11,25,10,19,6.10
2019,11,25,10,20,6.20
2019,11,25,10,21,6.30
2019,11,25,10,22,6.30
2019,11,25,10,23,6.40
2019,11,25,10,24,6.40
2019,11,25,10,25,6.40
2019,11,25,10,26,6.50
2019,11,25,10,27,6.50
2019,11,25,10,28,6.50
2019,11,25,10,29,6.60
2019,11,25,10,30,6.60
2019,11,25,10,31,6.50
2019,11,25,10,32,6.50
2019,11,25,10,33,6.60
2019,11,25,10,34,6.60
2019,11,25,10,35,6.60
2019,11,25,10,36,6.60
2019,11,25,10,37,6.70
2019,11,25,10,38,6.70
2019,11,25,10,39,6.70
2019,11,25,10,40,6.80
2019,11,25,10,41,6.80
2019,11,25,10,42,6.80
2019,11,25,10,43,6.80
2019,11,25,10,44,6.90
2019,11,25,10,45,6.90
2019,11,25,10,46,6.90
2019,11,25,10,47,6.90
2019,11,25,10,48,6.90
2019,11,25,10,49,7.00
2019,11,25,10,50,7.00
2019,11,25,10,51,7.00
2019,11,25,10,52,7.10
2019,11,25,10,53,7.10
2019,11,25,10,54,7.10
2019,11,25,10,55,7.20
2019,11,25,10,56,7.20
2019,11,25,10,57,7.20
2019,11,25,10,58,7.20
2019,11,25,10,59,7.20
2019,11,25,11,00,7.20
2019,11,25,11,01,7.20
2019,11,25,11,02,7.10
2019,11,25,11,03,7.20
2019,11,25,11,04,7.20
2019,11,25,11,05,7.20
2019,11,25,11,06,7.20
2019,11,25,11,07,7.20
2019,11,25,11,08,7.20
2019,11,25,11,09,7.20
2019,11,25,11,10,7.20
2019,11,25,11,11,7.20
2019,11,25,11,12,7.20
2019,11,25,11,13,7.20
2019,11,25,11,14,7.20
2019,11,25,11,15,7.20
2019,11,25,11,16,7.20
2019,11,25,11,17,7.20
2019,11,25,11,18,7.20
2019,11,25,11,19,7.20
2019,11,25,11,20,7.20
2019,11,25,11,21,7.20
2019,11,25,11,22,7.20
2019,11,25,11,23,7.20
2019,11,25,11,24,7.30
2019,11,25,11,25,7.30
2019,11,25,11,26,7.30
2019,11,25,11,27,7.30
2019,11,25,11,28,7.40
2019,11,25,11,29,7.40
2019,11,25,11,30,7.40
2019,11,25,11,31,7.40
2019,11,25,11,32,7.40
2019,11,25,11,33,7.40
2019,11,25,11,34,7.50
2019,11,25,11,35,7.50
2019,11,25,11,36,7.60
2019,11,25,11,37,7.60
2019,11,25,11,38,7.60
2019,11,25,11,39,7.70
2019,11,25,11,40,7.70
2019,11,25,11,41,7.70
2019,11,25,11,42,7.70
2019,11,25,11,43,7.70
2019,11,25,11,44,7.70
2019,11,25,11,45,7.70
2019,11,25,11,46,7.70
2019,11,25,11,47,7.70
2019,11,25,11,48,7.70
2019,11,25,11,49,7.70
2019,11,25,11,50,7.80
2019,11,25,11,51,7.90
2019,11,25,11,52,8.00
2019,11,25,11,53,8.10
2019,11,25,11,54,8.30
2019,11,25,11,55,8.40
2019,11,25,11,56,8.50
2019,11,25,11,57,8.60
2019,11,25,11,58,8.70
2019,11,25,11,59,8.80
2019,11,25,12,00,8.80
2019,11,25,12,01,8.80
2019,11,25,12,02,8.90
2019,11,25,12,03,8.90
2019,11,25,12,04,8.90
2019,11,25,12,05,8.90
2019,11,25,12,06,8.90
2019,11,25,12,07,8.90
2019,11,25,12,08,8.90
2019,11,25,12,09,8.80
2019,11,25,12,10,8.80
2019,11,25,12,11,8.80
2019,11,25,12,12,8.80
2019,11,25,12,13,8.90
2019,11,25,12,14,8.90
2019,11,25,12,15,8.90
2019,11,25,12,16,8.90
2019,11,25,12,17,8.90
2019,11,25,12,18,8.90
2019,11,25,12,19,8.90
2019,11,25,12,20,8.90
2019,11,25,12,21,8.90
2019,11,25,12,22,8.80
2019,11,25,12,23,8.70
2019,11,25,12,24,8.70
2019,11,25,12,25,8.70
2019,11,25,12,26,8.60
2019,11,25,12,27,8.60
2019,11,25,12,28,8.60
2019,11,25,12,29,8.60
2019,11,25,12,30,8.60
2019,11,25,12,31,8.60
2019,11,25,12,32,8.60
2019,11,25,12,33,8.60
2019,11,25,12,34,8.70
2019,11,25,12,35,8.70
2019,11,25,12,36,8.70
2019,11,25,12,37,8.70
2019,11,25,12,38,8.70
2019,11,25,12,39,8.80
2019,11,25,12,40,8.80
2019,11,25,12,41,8.80
2019,11,25,12,42,8.80
2019,11,25,12,43,8.90
2019,11,25,12,44,8.90
2019,11,25,12,45,9.00
2019,11,25,12,46,9.00
2019,11,25,12,47,9.10
2019,11,25,12,48,9.20
2019,11,25,12,49,9.20
2019,11,25,12,50,9.20
2019,11,25,12,51,9.20
2019,11,25,12,52,9.20
2019,11,25,12,53,9.20
2019,11,25,12,54,9.30
2019,11,25,12,55,9.30
2019,11,25,12,56,9.20
2019,11,25,12,57,9.10
2019,11,25,12,58,9.00
2019,11,25,12,59,8.90
2019,11,25,13,00,8.80
2019,11,25,13,01,8.70
2019,11,25,13,02,8.70
2019,11,25,13,03,8.70
2019,11,25,13,04,8.60
2019,11,25,13,05,8.60
2019,11,25,13,06,8.60
2019,11,25,13,07,8.60
2019,11,25,13,08,8.60
2019,11,25,13,09,8.70
2019,11,25,13,10,8.70
2019,11,25,13,11,8.80
2019,11,25,13,12,8.90
2019,11,25,13,13,8.90
2019,11,25,13,14,9.00
2019,11,25,13,15,9.10
2019,11,25,13,16,9.10
2019,11,25,13,17,9.10
2019,11,25,13,18,9.00
2019,11,25,13,19,9.00
2019,11,25,13,20,9.10
2019,11,25,13,21,9.10
2019,11,25,13,22,9.10
2019,11,25,13,23,9.00
2019,11,25,13,24,9.00
2019,11,25,13,25,8.90
2019,11,25,13,26,8.90
2019,11,25,13,27,8.90
2019,11,25,13,28,8.90
2019,11,25,13,29,8.90
2019,11,25,13,30,8.90
2019,11,25,13,31,8.80
2019,11,25,13,32,8.80
2019,11,25,13,33,8.80
2019,11,25,13,34,8.80
2019,11,25,13,35,8.80
2019,11,25,13,36,8.70
2019,11,25,13,37,8.60
2019,11,25,13,38,8.50
2019,11,25,13,39,8.40
2019,11,25,13,40,8.40
2019,11,25,13,41,8.40
2019,11,25,13,42,8.50
2019,11,25,13,43,8.50
2019,11,25,13,44,8.60
2019,11,25,13,45,8.50
2019,11,25,13,46,8.50
2019,11,25,13,47,8.50
2019,11,25,13,48,8.60
2019,11,25,13,49,8.60
2019,11,25,13,50,8.70
2019,11,25,13,51,8.70
2019,11,25,13,52,8.80
2019,11,25,13,53,8.80
2019,11,25,13,54,8.80
2019,11,25,13,55,8.80
2019,11,25,13,56,8.80
2019,11,25,13,57,8.80
2019,11,25,13,58,8.80
2019,11,25,13,59,8.80
2019,11,25,14,00,8.80
2019,11,25,14,01,8.70
2019,11,25,14,02,8.70
2019,11,25,14,03,8.60
2019,11,25,14,04,8.60
2019,11,25,14,05,8.60
2019,11,25,14,06,8.60
2019,11,25,14,07,8.70
2019,11,25,14,08,8.70
2019,11,25,14,09,8.70
2019,11,25,14,10,8.70
2019,11,25,14,11,8.70
2019,11,25,14,12,8.70
2019,11,25,14,13,8.70
2019,11,25,14,14,8.70
2019,11,25,14,15,8.70
2019,11,25,14,16,8.70
2019,11,25,14,17,8.60
2019,11,25,14,18,8.60
2019,11,25,14,19,8.60
2019,11,25,14,20,8.60
2019,11,25,14,21,8.60
2019,11,25,14,22,8.60
2019,11,25,14,23,8.60
2019,11,25,14,24,8.60
2019,11,25,14,25,8.70
2019,11,25,14,26,8.70
2019,11,25,14,27,8.70
2019,11,25,14,28,8.70
2019,11,25,14,29,8.70
2019,11,25,14,30,8.70
2019,11,25,14,31,8.60
2019,11,25,14,32,8.60
2019,11,25,14,33,8.70
2019,11,25,14,34,8.70
2019,11,25,14,35,8.70
2019,11,25,14,36,8.70
2019,11,25,14,37,8.70
2019,11,25,14,38,8.70
2019,11,25,14,39,8.70
2019,11,25,14,40,8.70
2019,11,25,14,41,8.70
2019,11,25,14,42,8.70
2019,11,25,14,43,8.70
2019,11,25,14,44,8.70
2019,11,25,14,45,8.70
2019,11,25,14,46,8.70
2019,11,25,14,47,8.70
2019,11,25,14,48,8.70
2019,11,25,14,49,8.70
2019,11,25,14,50,8.70
2019,11,25,14,51,8.70
2019,11,25,14,52,8.60
2019,11,25,14,53,8.60
2019,11,25,14,54,8.60
2019,11,25,14,55,8.60
2019,11,25,14,56,8.60
2019,11,25,14,57,8.60
2019,11,25,14,58,8.60
2019,11,25,14,59,8.60
2019,11,25,15,00,8.60
2019,11,25,15,01,8.60
2019,11,25,15,02,8.60
2019,11,25,15,03,8.60
2019,11,25,15,04,8.50
2019,11,25,15,05,8.50
2019,11,25,15,06,8.50
2019,11,25,15,07,8.40
2019,11,25,15,08,8.40
2019,11,25,15,09,8.40
2019,11,25,15,10,8.40
2019,11,25,15,11,8.40
2019,11,25,15,12,8.40
2019,11,25,15,13,8.40
2019,11,25,15,14,8.50
2019,11,25,15,15,8.50
2019,11,25,15,16,8.50
2019,11,25,15,17,8.50
2019,11,25,15,18,8.40
2019,11,25,15,19,8.50
2019,11,25,15,20,8.50
2019,11,25,15,21,8.50
2019,11,25,15,22,8.60
2019,11,25,15,23,8.50
2019,11,25,15,24,8.50
2019,11,25,15,25,8.50
2019,11,25,15,26,8.50
2019,11,25,15,27,8.40
2019,11,25,15,28,8.40
2019,11,25,15,29,8.40
2019,11,25,15,30,8.40
2019,11,25,15,31,8.40
2019,11,25,15,32,8.40
2019,11,25,15,33,8.30
2019,11,25,15,34,8.30
2019,11,25,15,35,8.30
2019,11,25,15,36,8.20
2019,11,25,15,37,8.20
2019,11,25,15,38,8.20
2019,11,25,15,39,8.20
2019,11,25,15,40,8.10
2019,11,25,15,41,8.10
2019,11,25,15,42,8.10
2019,11,25,15,43,8.10
2019,11,25,15,44,8.00
2019,11,25,15,45,8.00
2019,11,25,15,46,8.00
2019,11,25,15,47,8.00
2019,11,25,15,48,8.00
2019,11,25,15,49,8.00
2019,11,25,15,50,8.00
2019,11,25,15,51,7.90
2019,11,25,15,52,7.90
2019,11,25,15,53,7.90
2019,11,25,15,54,7.90
2019,11,25,15,55,7.90
2019,11,25,15,56,7.90
2019,11,25,15,57,7.90
2019,11,25,15,58,7.90
2019,11,25,15,59,7.90
2019,11,25,16,00,7.90
2019,11,25,16,01,7.80
2019,11,25,16,02,7.80
2019,11,25,16,03,7.80
2019,11,25,16,04,7.80
2019,11,25,16,05,7.80
2019,11,25,16,06,7.70
2019,11,25,16,07,7.70
2019,11,25,16,08,7.70
2019,11,25,16,09,7.60
2019,11,25,16,10,7.60
2019,11,25,16,11,7.60
2019,11,25,16,12,7.60
2019,11,25,16,13,7.50
2019,11,25,16,14,7.50
2019,11,25,16,15,7.50
2019,11,25,16,16,7.40
2019,11,25,16,17,7.40
2019,11,25,16,18,7.40
2019,11,25,16,19,7.40
2019,11,25,16,20,7.30
2019,11,25,16,21,7.30
2019,11,25,16,22,7.30
2019,11,25,16,23,7.30
2019,11,25,16,24,7.30
2019,11,25,16,25,7.20
2019,11,25,16,26,7.20
2019,11,25,16,27,7.20
2019,11,25,16,28,7.20
2019,11,25,16,29,7.20
2019,11,25,16,30,7.10
2019,11,25,16,31,7.10
2019,11,25,16,32,7.10
2019,11,25,16,33,7.10
2019,11,25,16,34,7.00
2019,11,25,16,35,7.00
2019,11,25,16,36,7.00
2019,11,25,16,37,7.00
2019,11,25,16,38,7.00
2019,11,25,16,39,6.90
2019,11,25,16,40,6.90
2019,11,25,16,41,6.90
2019,11,25,16,42,6.90
2019,11,25,16,43,6.90
2019,11,25,16,44,6.90
2019,11,25,16,45,6.90
2019,11,25,16,46,6.90
2019,11,25,16,47,6.80
2019,11,25,16,48,6.80
2019,11,25,16,49,6.80
2019,11,25,16,50,6.80
2019,11,25,16,51,6.80
2019,11,25,16,52,6.70
2019,11,25,16,53,6.70
2019,11,25,16,54,6.70
2019,11,25,16,55,6.60
2019,11,25,16,56,6.50
2019,11,25,16,57,6.50
2019,11,25,16,58,6.40
2019,11,25,16,59,6.30
2019,11,25,17,00,6.30
2019,11,25,17,01,6.30
2019,11,25,17,02,6.20
2019,11,25,17,03,6.20
2019,11,25,17,04,6.20
2019,11,25,17,05,6.10
2019,11,25,17,06,6.10
2019,11,25,17,07,6.10
2019,11,25,17,08,6.00
2019,11,25,17,09,5.90
2019,11,25,17,10,5.90
2019,11,25,17,11,5.90
2019,11,25,17,12,5.90
2019,11,25,17,13,5.90
2019,11,25,17,14,5.80
2019,11,25,17,15,5.80
2019,11,25,17,16,5.80
2019,11,25,17,17,5.80
2019,11,25,17,18,5.80
2019,11,25,17,19,5.70
2019,11,25,17,20,5.70
2019,11,25,17,21,5.70
2019,11,25,17,22,5.70
2019,11,25,17,23,5.60
2019,11,25,17,24,5.60
2019,11,25,17,25,5.60
2019,11,25,17,26,5.60
2019,11,25,17,27,5.60
2019,11,25,17,28,5.60
2019,11,25,17,29,5.60
2019,11,25,17,30,5.60
2019,11,25,17,31,5.60
2019,11,25,17,32,5.50
2019,11,25,17,33,5.50
2019,11,25,17,34,5.50
2019,11,25,17,35,5.40
2019,11,25,17,36,5.40
2019,11,25,17,37,5.30
2019,11,25,17,38,5.30
2019,11,25,17,39,5.20
2019,11,25,17,40,5.20
2019,11,25,17,41,5.10
2019,11,25,17,42,5.10
2019,11,25,17,43,5.00
2019,11,25,17,44,5.00
2019,11,25,17,45,4.90
2019,11,25,17,46,4.90
2019,11,25,17,47,4.80
2019,11,25,17,48,4.80
2019,11,25,17,49,4.80
2019,11,25,17,50,4.70
2019,11,25,17,51,4.70
2019,11,25,17,52,4.70
2019,11,25,17,53,4.70
2019,11,25,17,54,4.70
2019,11,25,17,55,4.70
2019,11,25,17,56,4.70
2019,11,25,17,57,4.70
2019,11,25,17,58,4.70
2019,11,25,17,59,4.70
2019,11,25,18,00,4.70
2019,11,25,18,01,4.70
2019,11,25,18,02,4.70
2019,11,25,18,03,4.70
2019,11,25,18,04,4.70
2019,11,25,18,05,4.70
2019,11,25,18,06,4.70
2019,11,25,18,07,4.60
2019,11,25,18,08,4.60
2019,11,25,18,09,4.60
2019,11,25,18,10,4.60
2019,11,25,18,11,4.60
2019,11,25,18,12,4.60
2019,11,25,18,13,4.50
2019,11,25,18,14,4.50
2019,11,25,18,15,4.50
2019,11,25,18,16,4.40
2019,11,25,18,17,4.40
2019,11,25,18,18,4.40
2019,11,25,18,19,4.40
2019,11,25,18,20,4.30
2019,11,25,18,21,4.30
2019,11,25,18,22,4.30
2019,11,25,18,23,4.20
2019,11,25,18,24,4.20
2019,11,25,18,25,4.20
2019,11,25,18,26,4.20
2019,11,25,18,27,4.20
2019,11,25,18,28,4.20
2019,11,25,18,29,4.20
2019,11,25,18,30,4.30
2019,11,25,18,31,4.40
2019,11,25,18,32,4.50
2019,11,25,18,33,4.40
2019,11,25,18,34,4.40
2019,11,25,18,35,4.30
2019,11,25,18,36,4.30
2019,11,25,18,37,4.20
2019,11,25,18,38,4.20
2019,11,25,18,39,4.20
2019,11,25,18,40,4.20
2019,11,25,18,41,4.10
2019,11,25,18,42,4.10
2019,11,25,18,43,4.10
2019,11,25,18,44,4.10
2019,11,25,18,45,4.10
2019,11,25,18,46,4.10
2019,11,25,18,47,4.00
2019,11,25,18,48,4.00
2019,11,25,18,49,4.00
2019,11,25,18,50,3.90
2019,11,25,18,51,3.90
2019,11,25,18,52,3.90
2019,11,25,18,53,3.90
2019,11,25,18,54,3.80
2019,11,25,18,55,3.80
2019,11,25,18,56,3.80
2019,11,25,18,57,3.80
2019,11,25,18,58,3.80
2019,11,25,18,59,3.70
2019,11,25,19,00,3.70
2019,11,25,19,01,3.70
2019,11,25,19,02,3.70
2019,11,25,19,03,3.70
2019,11,25,19,04,3.60
2019,11,25,19,05,3.60
2019,11,25,19,06,3.60
2019,11,25,19,07,3.50
2019,11,25,19,08,3.50
2019,11,25,19,09,3.50
2019,11,25,19,10,3.40
2019,11,25,19,11,3.40
2019,11,25,19,12,3.40
2019,11,25,19,13,3.40
2019,11,25,19,14,3.30
2019,11,25,19,15,3.30
2019,11,25,19,16,3.30
2019,11,25,19,17,3.30
2019,11,25,19,18,3.30
2019,11,25,19,19,3.30
2019,11,25,19,20,3.20
2019,11,25,19,21,3.20
2019,11,25,19,22,3.20
2019,11,25,19,23,3.20
2019,11,25,19,24,3.20
2019,11,25,19,25,3.30
2019,11,25,19,26,3.30
2019,11,25,19,27,3.30
2019,11,25,19,28,3.30
2019,11,25,19,29,3.30
2019,11,25,19,30,3.30
2019,11,25,19,31,3.30
2019,11,25,19,32,3.30
2019,11,25,19,33,3.20
2019,11,25,19,34,3.20
2019,11,25,19,35,3.20
2019,11,25,19,36,3.20
2019,11,25,19,37,3.20
2019,11,25,19,38,3.20
2019,11,25,19,39,3.20
2019,11,25,19,40,3.20
2019,11,25,19,41,3.20
2019,11,25,19,42,3.20
2019,11,25,19,43,3.20
2019,11,25,19,44,3.20
2019,11,25,19,45,3.10
2019,11,25,19,46,3.10
2019,11,25,19,47,3.00
2019,11,25,19,48,3.00
2019,11,25,19,49,3.00
2019,11,25,19,50,3.00
2019,11,25,19,51,3.00
2019,11,25,19,52,3.00
2019,11,25,19,53,3.00
2019,11,25,19,54,3.00
2019,11,25,19,55,3.00
2019,11,25,19,56,3.00
2019,11,25,19,57,3.00
2019,11,25,19,58,3.00
2019,11,25,19,59,3.00
2019,11,25,20,00,2.90
2019,11,25,20,01,2.90
2019,11,25,20,02,2.90
2019,11,25,20,03,2.90
2019,11,25,20,04,2.90
2019,11,25,20,05,2.90
2019,11,25,20,06,2.90
2019,11,25,20,07,2.90
2019,11,25,20,08,2.90
2019,11,25,20,09,2.90
2019,11,25,20,10,2.90
2019,11,25,20,11,3.00
2019,11,25,20,12,3.10
2019,11,25,20,13,3.10
2019,11,25,20,14,3.20
2019,11,25,20,15,3.20
2019,11,25,20,16,3.20
2019,11,25,20,17,3.20
2019,11,25,20,18,3.20
2019,11,25,20,19,3.20
2019,11,25,20,20,3.20
2019,11,25,20,21,3.10